📊 Raw Sensor Data
Showing records 42226 to 42250 of 84,997 total
| ID | Distance (ft) | Battery V | Battery A | Int Temp (°F) | Int Humid (%) | Ext Temp (°F) | Solar V | RSSI | SNR | Time Stamp |
|---|---|---|---|---|---|---|---|---|---|---|
| 42784 | 15.0 | 3.95 | -5 | 53 | 44 | 54 | 0.00 | -72 | 8 | 06/07/2025 02:15 AM |
| 42783 | 15.0 | 4.01 | -5 | 53 | 44 | 54 | 0.00 | -72 | 8 | 06/07/2025 02:00 AM |
| 42782 | 15.0 | 3.95 | -5 | 54 | 44 | 54 | 0.10 | -72 | 8 | 06/07/2025 01:45 AM |
| 42781 | 15.0 | 3.95 | -5 | 54 | 44 | 56 | 0.00 | -71 | 7 | 06/07/2025 01:30 AM |
| 42780 | 15.0 | 3.96 | -5 | 55 | 44 | 56 | 0.00 | -71 | 7 | 06/07/2025 01:15 AM |
| 42779 | 15.0 | 3.96 | -5 | 57 | 44 | 57 | 0.00 | -72 | 8 | 06/07/2025 12:45 AM |
| 42778 | 15.0 | 4.02 | -5 | 57 | 44 | 58 | 0.00 | -71 | 8 | 06/07/2025 12:30 AM |
| 42777 | 15.1 | 3.96 | -5 | 58 | 45 | 58 | 0.00 | -70 | 8 | 06/07/2025 12:15 AM |
| 42776 | 15.0 | 3.96 | -5 | 59 | 45 | 60 | 0.00 | -71 | 8 | 06/07/2025 12:00 AM |
| 42775 | 15.0 | 3.96 | -5 | 59 | 45 | 60 | 0.00 | -71 | 7 | 06/06/2025 11:45 PM |
| 42774 | 15.0 | 3.96 | -5 | 60 | 45 | 61 | 0.00 | -70 | 8 | 06/06/2025 11:30 PM |
| 42773 | 15.0 | 3.96 | -5 | 60 | 45 | 61 | 0.00 | -71 | 7 | 06/06/2025 11:15 PM |
| 42772 | 15.0 | 3.96 | -5 | 61 | 46 | 62 | 0.00 | -71 | 8 | 06/06/2025 11:00 PM |
| 42771 | 15.0 | 3.96 | -5 | 61 | 46 | 62 | 0.00 | -72 | 8 | 06/06/2025 10:45 PM |
| 42770 | 15.0 | 4.02 | -5 | 62 | 46 | 62 | 0.00 | -71 | 6 | 06/06/2025 10:30 PM |
| 42769 | 15.0 | 4.03 | -5 | 63 | 47 | 63 | 0.00 | -72 | 6 | 06/06/2025 10:15 PM |
| 42768 | 15.0 | 3.97 | -5 | 64 | 47 | 64 | 0.00 | -70 | 8 | 06/06/2025 10:00 PM |
| 42767 | 15.0 | 3.97 | -5 | 65 | 48 | 65 | 0.00 | -71 | 7 | 06/06/2025 09:45 PM |
| 42766 | 15.0 | 3.97 | -5 | 66 | 48 | 66 | 0.00 | -69 | 8 | 06/06/2025 09:30 PM |
| 42765 | 15.0 | 3.97 | -5 | 67 | 49 | 67 | 0.00 | -69 | 8 | 06/06/2025 09:15 PM |
| 42764 | 15.2 | 3.97 | -5 | 68 | 51 | 67 | 0.00 | -69 | 8 | 06/06/2025 09:00 PM |
| 42763 | 15.3 | 4.03 | -5 | 69 | 52 | 68 | 0.20 | -68 | 8 | 06/06/2025 08:45 PM |
| 42762 | 15.3 | 3.96 | -9 | 71 | 53 | 69 | 3.20 | -68 | 8 | 06/06/2025 08:30 PM |
| 42761 | 15.3 | 3.97 | -5 | 75 | 53 | 71 | 4.50 | -69 | 8 | 06/06/2025 08:15 PM |
| 42760 | 15.3 | 3.99 | 0 | 79 | 53 | 73 | 4.50 | -70 | 8 | 06/06/2025 08:00 PM |